Location: Champignolles
(47.0543°N, 4.5663°E)
Time: 05:30:30
(UTC+00:00)

Landsat 5 - Pass Details

Date: 30 November 2020
Orbit: 528 x 654 km, 98.2° (Epoch: 18 January)

Event Time Altitude Azimuth Distance (km) Brightness Sun altitude
Rises 16:44:22 0° 14° (NNE) 2,938 6.7 -8.3°
Reaches altitude 10° 16:46:33 10° 15° (NNE) 2,039 5.9 -8.7°
Maximum altitude 16:51:02 85° 105° (ESE) 657 3.6 -9.4°
Drops below altitude 10° 16:55:33 10° 193° (SSW) 2,057 6.7 -10.1°
Sets 16:57:45 0° 194° (SSW) 2,965 7.6 -10.4°
